TimePST,TemperatureF,Dew PointF,Humidity,Sea Level PressureIn,VisibilityMPH,Wind Direction,Wind SpeedMPH,Gust SpeedMPH,PrecipitationIn,Events,Conditions,WindDirDegrees,DateUTC
12:15 AM,41.0,14.0,33,30.39,10.0,WNW,3.5,-,N/A,,Unknown,290,2013-01-17 08:15:00
12:35 AM,39.2,14.0,36,30.38,10.0,Calm,Calm,-,N/A,,Unknown,0,2013-01-17 08:35:00
12:55 AM,41.0,15.8,36,30.38,10.0,NE,3.5,-,N/A,,Unknown,40,2013-01-17 08:55:00
1:35 AM,41.0,12.2,31,30.39,10.0,Calm,Calm,-,N/A,,Unknown,0,2013-01-17 09:35:00
1:55 AM,41.0,12.2,31,30.39,10.0,NNW,4.6,-,N/A,,Unknown,340,2013-01-17 09:55:00
2:15 AM,37.4,12.2,36,30.39,10.0,NNW,4.6,-,N/A,,Unknown,330,2013-01-17 10:15:00
2:35 AM,41.0,14.0,33,30.39,10.0,North,5.8,-,N/A,,Unknown,10,2013-01-17 10:35:00
2:55 AM,39.2,12.2,33,30.38,10.0,Calm,Calm,-,N/A,,Unknown,0,2013-01-17 10:55:00
3:15 AM,35.6,12.2,38,30.38,10.0,NW,9.2,-,N/A,,Unknown,320,2013-01-17 11:15:00
3:35 AM,37.4,12.2,36,30.38,10.0,NW,9.2,-,N/A,,Unknown,320,2013-01-17 11:35:00
4:15 AM,35.6,12.2,38,30.38,10.0,NNW,5.8,-,N/A,,Unknown,340,2013-01-17 12:15:00
4:35 AM,35.6,12.2,38,30.38,10.0,NNW,5.8,-,N/A,,Unknown,330,2013-01-17 12:35:00
4:55 AM,35.6,12.2,38,30.38,10.0,North,5.8,-,N/A,,Unknown,10,2013-01-17 12:55:00
5:15 AM,37.4,12.2,36,30.38,10.0,North,8.1,-,N/A,,Unknown,360,2013-01-17 13:15:00
5:35 AM,37.4,10.4,33,30.38,10.0,Calm,Calm,-,N/A,,Unknown,0,2013-01-17 13:35:00
5:55 AM,35.6,12.2,38,30.39,10.0,Calm,Calm,-,N/A,,Unknown,0,2013-01-17 13:55:00
6:15 AM,37.4,10.4,33,30.39,10.0,North,8.1,-,N/A,,Unknown,360,2013-01-17 14:15:00
6:35 AM,35.6,10.4,35,30.40,10.0,NW,5.8,-,N/A,,Unknown,320,2013-01-17 14:35:00
6:55 AM,37.4,10.4,33,30.41,10.0,Calm,Calm,-,N/A,,Unknown,0,2013-01-17 14:55:00
7:15 AM,35.6,10.4,35,30.41,10.0,NW,6.9,-,N/A,,Unknown,320,2013-01-17 15:15:00
7:35 AM,39.2,10.4,31,30.42,10.0,NW,8.1,-,N/A,,Unknown,320,2013-01-17 15:35:00
7:55 AM,41.0,10.4,29,30.42,10.0,NW,6.9,-,N/A,,Unknown,320,2013-01-17 15:55:00
8:15 AM,44.6,10.4,25,30.43,10.0,NW,5.8,-,N/A,,Unknown,320,2013-01-17 16:15:00
8:35 AM,46.4,10.4,23,30.43,10.0,NW,5.8,-,N/A,,Unknown,310,2013-01-17 16:35:00
8:55 AM,46.4,10.4,23,30.43,10.0,NW,10.4,-,N/A,,Unknown,310,2013-01-17 16:55:00
9:15 AM,46.4,10.4,23,30.43,10.0,NW,8.1,-,N/A,,Unknown,310,2013-01-17 17:15:00
9:35 AM,48.2,10.4,22,30.43,10.0,NW,8.1,-,N/A,,Unknown,310,2013-01-17 17:35:00
9:55 AM,48.2,10.4,22,30.43,10.0,NW,8.1,-,N/A,,Unknown,310,2013-01-17 17:55:00
10:15 AM,48.2,10.4,22,30.42,10.0,WNW,9.2,-,N/A,,Unknown,300,2013-01-17 18:15:00
10:35 AM,50.0,10.4,20,30.41,10.0,WNW,9.2,-,N/A,,Unknown,300,2013-01-17 18:35:00
10:55 AM,51.8,10.4,19,30.40,10.0,NW,8.1,-,N/A,,Unknown,320,2013-01-17 18:55:00
11:15 AM,53.6,10.4,18,30.38,10.0,NNW,9.2,-,N/A,,Unknown,330,2013-01-17 19:15:00
11:35 AM,55.4,10.4,17,30.37,10.0,NE,6.9,-,N/A,,Unknown,40,2013-01-17 19:35:00
11:55 AM,55.4,8.6,15,30.36,10.0,NNE,8.1,-,N/A,,Unknown,30,2013-01-17 19:55:00
12:15 PM,57.2,8.6,14,30.34,10.0,NE,8.1,-,N/A,,Unknown,40,2013-01-17 20:15:00
12:35 PM,55.4,8.6,15,30.33,10.0,NE,10.4,-,N/A,,Unknown,40,2013-01-17 20:35:00
12:55 PM,57.2,8.6,14,30.32,10.0,NE,10.4,-,N/A,,Unknown,40,2013-01-17 20:55:00
1:15 PM,57.2,8.6,14,30.31,10.0,NE,9.2,-,N/A,,Unknown,40,2013-01-17 21:15:00
1:35 PM,57.2,8.6,14,30.31,10.0,NE,9.2,-,N/A,,Unknown,40,2013-01-17 21:35:00
1:55 PM,57.2,8.6,14,30.30,10.0,North,9.2,-,N/A,,Unknown,10,2013-01-17 21:55:00
2:55 PM,59.0,8.6,14,30.29,10.0,NNE,5.8,-,N/A,,Unknown,30,2013-01-17 22:55:00
3:35 PM,59.0,8.6,14,30.29,10.0,NNE,9.2,-,N/A,,Unknown,20,2013-01-17 23:35:00
5:15 PM,50.0,10.4,20,30.30,10.0,North,8.1,-,N/A,,Unknown,360,2013-01-18 01:15:00
5:55 PM,53.6,8.6,16,30.30,10.0,North,6.9,-,N/A,,Unknown,360,2013-01-18 01:55:00
6:15 PM,50.0,10.4,20,30.31,10.0,North,5.8,-,N/A,,Unknown,360,2013-01-18 02:15:00
6:55 PM,51.8,8.6,18,30.31,10.0,NNW,5.8,-,N/A,,Unknown,330,2013-01-18 02:55:00
7:15 PM,50.0,8.6,19,30.31,10.0,North,5.8,-,N/A,,Unknown,350,2013-01-18 03:15:00
7:35 PM,48.2,10.4,22,30.30,10.0,North,8.1,-,N/A,,Unknown,350,2013-01-18 03:35:00
7:55 PM,46.4,10.4,23,30.30,10.0,North,6.9,-,N/A,,Unknown,350,2013-01-18 03:55:00
9:15 PM,48.2,10.4,22,30.31,10.0,NW,5.8,-,N/A,,Unknown,320,2013-01-18 05:15:00
9:35 PM,44.6,10.4,25,30.31,10.0,NW,5.8,-,N/A,,Unknown,320,2013-01-18 05:35:00
9:55 PM,44.6,12.2,27,30.31,10.0,Calm,Calm,-,N/A,,Unknown,0,2013-01-18 05:55:00
10:15 PM,46.4,10.4,23,30.31,10.0,NNE,9.2,-,N/A,,Unknown,30,2013-01-18 06:15:00
10:35 PM,44.6,10.4,25,30.31,10.0,NNW,5.8,-,N/A,,Unknown,330,2013-01-18 06:35:00
10:55 PM,48.2,10.4,22,30.31,10.0,North,10.4,-,N/A,,Unknown,10,2013-01-18 06:55:00
11:15 PM,46.4,10.4,23,30.31,10.0,NNW,9.2,-,N/A,,Unknown,330,2013-01-18 07:15:00
11:35 PM,46.4,10.4,23,30.31,10.0,NW,6.9,-,N/A,,Unknown,320,2013-01-18 07:35:00
11:55 PM,42.8,10.4,27,30.31,10.0,NW,10.4,-,N/A,,Unknown,310,2013-01-18 07:55:00